User: anonymous   Login
Location: Goheenville
(40.9070°N, 79.3720°W)
Time: 14:04:59
(UTC-05:00)
Language:

Cosmos 1727 Rocket - Orbit

View from above orbital plane
View from above orbital plane
View from above satellite
View from above satellite

Ground track
Ground track

The orbit data is extracted from the following two-line orbital elements,

1 16511U 86008B   17057.27926542  .00000091  00000-0  78218-4 0  9993
2 16511  82.9449 302.1717 0023071 230.8793 268.5780 13.75811148561027
Epoch (UTC): 26 February 2017 06:42:08
Eccentricity: 0.0023071
inclination: 82.9449°
perigee height: 962 km
apogee height: 996 km
right ascension of ascending node: 302.1717°
argument of perigee: 230.8793°
revolutions per day: 13.75811148
mean anomaly at epoch: 268.5780°
orbit number at epoch: 56102

The dashed part of the orbit path shows where the satellite is in the earth's shadow,  

DLR